Dubuque, IA

5:30 PM CST on November 20, 2017 (GMT -0600)
Dubuque Regional

Weather History for KDBQ - April, 2014

Change the Weather History Date:

Saturday, April 19, 2014

  Actual Average Record
Temperature  
Mean Temperature 53 °F 50 °F  
Max Temperature 70 °F 60 °F 83 °F (1985)
Min Temperature 35 °F 39 °F 22 °F (1988)
Degree Days  
Heating Degree Days 12 16  
Month to date heating degree days 403 362  
Since 1 July heating degree days 7938 6673  
Cooling Degree Days 0 0  
Month to date cooling degree days 0 0  
Year to date cooling degree days 0 0  
Growing Degree Days 2 (Base 50)    
Moisture  
Dew Point 32 °F    
Average Humidity 52    
Maximum Humidity 76    
Minimum Humidity 28    
Precipitation  
Precipitation 0.00 in 0.13 in 1.98 in (1877)
Month to date precipitation 3.71 2.22  
Year to date precipitation 7.33 7.24  
Snow  
Snow 0.00 in 0.00 in - ()
Month to date snowfall 0.7 1.6  
Since 1 July snowfall 63.3 41.5  
Snow Depth 0.00 in    
Sea Level Pressure  
Sea Level Pressure 30.25 in    
Wind  
Wind Speed 14 mph (SE)    
Max Wind Speed 25 mph    
Max Gust Speed 30 mph    
Visibility 10 miles    
Events      
T = Trace of Precipitation, MM = Missing Value Source: NWS Daily Summary

Daily Weather History Graph

Daily Weather History Graph

Search for Another Location

Airport or City:

Trip Planner

Search our weather history database for the weather conditions in past years. The results will help you decide how hot, cold, wet, or windy it might be!

Date:

Astronomy

Apr. 19, 2014 Rise Set
Actual Time 6:15 AM CDT 7:49 PM CDT
Civil Twilight 5:45 AM CDT 8:18 PM CDT
Nautical Twilight 5:10 AM CDT 8:54 PM CDT
Astronomical Twilight 4:32 AM CDT 9:32 PM CDT
Moon No Moon Rise 9:31 AM CDT (4/19)
Length of Visible Light 14h 32m
Length of Day
13h 33m
Waning Gibbous, 78% of the Moon is Illuminated
Apr 19
Waning Gibbous
Apr 22
Last Quarter
Apr 29
New
May 6
First Quarter
May 14
Full

Hourly Weather History & Observations

Time (CDT) Temp. Windchill Dew Point Humidity Pressure Visibility Wind Dir Wind Speed Gust Speed Precip Events Conditions
12:53 AM 41.0 °F 34.7 °F 34.0 °F 76% 30.32 in 10.0 mi ESE 10.4 mph - N/A   Clear
1:53 AM 39.0 °F 32.3 °F 32.0 °F 76% 30.33 in 10.0 mi ESE 10.4 mph - N/A   Clear
2:53 AM 37.0 °F 31.6 °F 30.0 °F 76% 30.33 in 10.0 mi ESE 6.9 mph - N/A   Clear
3:53 AM 35.6 °F 29.2 °F 28.4 °F 75% 30.32 in 10.0 mi East 8.1 mph - N/A   Clear
4:53 AM 35.1 °F 29.3 °F 26.1 °F 70% 30.32 in 10.0 mi ESE 6.9 mph - N/A   Clear
5:53 AM 35.1 °F 27.9 °F 25.0 °F 67% 30.32 in 10.0 mi East 9.2 mph - N/A   Clear
6:53 AM 36.0 °F 31.1 °F 25.0 °F 64% 30.33 in 10.0 mi East 5.8 mph - N/A   Clear
7:53 AM 39.9 °F 32.9 °F 26.1 °F 58% 30.34 in 10.0 mi ESE 11.5 mph - N/A   Clear
8:53 AM 44.1 °F 35.9 °F 25.0 °F 47% 30.33 in 10.0 mi SE 19.6 mph - N/A   Clear
9:53 AM 50.0 °F - 26.1 °F 39% 30.32 in 10.0 mi SE 17.3 mph 24.2 mph N/A   Clear
10:53 AM 52.0 °F - 28.9 °F 41% 30.30 in 10.0 mi SSE 21.9 mph 26.5 mph N/A   Clear
11:53 AM 57.9 °F - 32.0 °F 37% 30.28 in 10.0 mi SSE 16.1 mph 24.2 mph N/A   Clear
12:53 PM 61.0 °F - 33.1 °F 35% 30.25 in 10.0 mi South 18.4 mph 26.5 mph N/A   Clear
1:53 PM 64.9 °F - 35.1 °F 33% 30.24 in 10.0 mi South 18.4 mph 24.2 mph N/A   Clear
2:53 PM 66.9 °F - 35.1 °F 31% 30.20 in 10.0 mi SSE 23.0 mph 27.6 mph N/A   Clear
3:53 PM 68.0 °F - 35.1 °F 30% 30.17 in 10.0 mi South 20.7 mph 25.3 mph N/A   Clear
4:53 PM 69.1 °F - 37.0 °F 31% 30.15 in 10.0 mi South 19.6 mph 26.5 mph N/A   Clear
5:53 PM 69.1 °F - 36.0 °F 30% 30.14 in 10.0 mi South 17.3 mph - N/A   Clear
6:53 PM 66.0 °F - 37.9 °F 36% 30.13 in 10.0 mi South 15.0 mph - N/A   Clear
7:53 PM 59.0 °F - 39.0 °F 48% 30.14 in 10.0 mi SSE 11.5 mph - N/A   Clear
8:53 PM 57.0 °F - 37.9 °F 49% 30.15 in 10.0 mi SSE 11.5 mph - N/A   Clear
9:53 PM 55.9 °F - 36.0 °F 47% 30.15 in 10.0 mi SSE 13.8 mph - N/A   Clear
10:53 PM 57.0 °F - 36.0 °F 45% 30.16 in 10.0 mi SSE 12.7 mph - N/A   Overcast
11:53 PM 57.0 °F - 36.0 °F 45% 30.15 in 10.0 mi SSE 12.7 mph - N/A   Overcast